Location: ????????
(55.8351°N, 38.7040°E)
Time: 14:21:08
(UTC+00:00)

Cosmos 921 Rocket - Pass Details

Date: 14 April 2024
Orbit: 567 x 626 km, 75.8° (Epoch: 24 May)

Event Time Altitude Azimuth Distance (km) Brightness Sun altitude
Rises 01:14:06 0° 183° (S) 2,793 6.1 -9.4°
Reaches altitude 10° 01:16:21 10° 177° (S) 1,907 5.3 -9.1°
Maximum altitude 01:20:22 43° 106° (ESE) 838 4.1 -8.7°
Drops below altitude 10° 01:24:30 10° 34° (NE) 1,957 6.8 -8.2°
Sets 01:26:50 0° 28° (NNE) 2,876 7.6 -7.9°
